Tracking 19562 objects as of 22-Mar-2019
HD Live streaming from Space Station
objects crossing your sky now

COSMOS 1738

Track COSMOS 1738 now!
COSMOS 1738 is classified as:


NORAD ID: 16667
Int'l Code: 1986-027A
Perigee: 35,722.5 km
Apogee: 35,846.0 km
Inclination: 14.4 °
Period: 1,435.6 minutes
Semi major axis: 42155 km
RCS: 5.1444 m2 (large)
Launch date: April 4, 1986
Source: Commonwealth of Independent States (former USSR) (CIS)
Launch site: TYURATAM MISSILE AND SPACE COMPLEX (TTMTR)
aabbcc
Your satellite tracking list
Your tracking list is empty




NASA's NSSDC Master Catalog

Two Line Element Set (TLE):
1 16667U 86027A   19080.58938281 -.00000315  00000-0  00000+0 0  9990
2 16667  14.3891 341.1861 0014650  40.8728 147.5995  1.00305789120829
Source of the keplerian elements: AFSPC